JFA22R LFLI-LFOQ

Flight info

Callsign JFA22R
Flight time 1h 7m
Altitude 28000
Route MOKIP DCT SIQLE DCT KOTIS DCT BABOG
Aircraft PC12/L-SDFGRWY/S

Departure

Time 2026-04-23 13:53
Airport Annemasse Airfield (LFLI)

Arrival

Time 2026-04-23 15:01
Airport Blois Le Breuil Airfield (LFOQ)
Time Latitude Longitude Altitude Speed Heading
2026-04-23 13:44 46.19596 6.26505 1592 ft 0 kts 65°
2026-04-23 13:51 46.19596 6.26506 1592 ft 0 kts 61°
2026-04-23 13:51 46.19598 6.26510 1592 ft 9 kts 59°
2026-04-23 13:51 46.19609 6.26517 1592 ft 1 kts 312°
2026-04-23 13:52 46.19549 6.26457 1591 ft 26 kts 217°
2026-04-23 13:52 46.19398 6.26341 1589 ft 18 kts 176°
2026-04-23 13:52 46.19312 6.26520 1593 ft 47 kts 114°
2026-04-23 13:52 46.19033 6.27249 1704 ft 103 kts 111°
2026-04-23 13:53 46.18670 6.28212 2135 ft 115 kts 114°
2026-04-23 13:53 46.17993 6.28715 2589 ft 134 kts 193°
2026-04-23 13:53 46.17422 6.27718 3215 ft 124 kts 249°
2026-04-23 13:53 46.17049 6.26539 3551 ft 149 kts 247°
2026-04-23 13:54 46.16610 6.25127 4115 ft 153 kts 246°
2026-04-23 13:54 46.16231 6.23813 4740 ft 149 kts 260°
2026-04-23 13:54 46.16401 6.22396 5399 ft 146 kts 296°
2026-04-23 13:54 46.16844 6.21094 6125 ft 147 kts 297°
2026-04-23 13:55 46.17256 6.19763 6802 ft 149 kts 294°
2026-04-23 13:55 46.17640 6.18395 7440 ft 152 kts 293°
2026-04-23 13:55 46.18022 6.16953 8132 ft 156 kts 292°
2026-04-23 13:55 46.18401 6.15498 8832 ft 158 kts 291°
2026-04-23 13:56 46.18784 6.14006 9487 ft 162 kts 291°
2026-04-23 13:56 46.19173 6.12479 10099 ft 167 kts 291°
2026-04-23 13:56 46.19571 6.10922 10750 ft 167 kts 291°
2026-04-23 13:56 46.19968 6.09373 11375 ft 168 kts 290°
2026-04-23 13:57 46.20372 6.07785 11977 ft 170 kts 290°
2026-04-23 13:57 46.20782 6.06171 12531 ft 175 kts 290°
2026-04-23 13:57 46.21202 6.04520 13135 ft 175 kts 290°
2026-04-23 13:57 46.21616 6.02888 13671 ft 177 kts 290°
2026-04-23 13:58 46.22045 6.01197 14193 ft 180 kts 290°
2026-04-23 13:58 46.22475 5.99502 14721 ft 182 kts 290°
2026-04-23 13:58 46.22915 5.97770 15243 ft 184 kts 290°
2026-04-23 13:58 46.23358 5.96023 15714 ft 188 kts 289°
2026-04-23 13:59 46.23806 5.94251 16208 ft 190 kts 289°
2026-04-23 13:59 46.24258 5.92465 16670 ft 193 kts 289°
2026-04-23 13:59 46.24720 5.90640 17154 ft 194 kts 289°
2026-04-23 13:59 46.25182 5.88807 17622 ft 195 kts 288°
2026-04-23 14:00 46.25654 5.86940 18062 ft 198 kts 288°
2026-04-23 14:00 46.26121 5.85087 18523 ft 198 kts 288°
2026-04-23 14:00 46.26598 5.83185 18930 ft 202 kts 288°
2026-04-23 14:00 46.27082 5.81259 19338 ft 204 kts 288°
2026-04-23 14:01 46.27563 5.79346 19757 ft 205 kts 289°
2026-04-23 14:01 46.28051 5.77406 20173 ft 206 kts 289°
2026-04-23 14:01 46.28539 5.75464 20568 ft 209 kts 288°
2026-04-23 14:01 46.29039 5.73471 20968 ft 211 kts 289°
2026-04-23 14:02 46.29539 5.71477 21423 ft 210 kts 289°
2026-04-23 14:02 46.30018 5.69558 21759 ft 214 kts 289°
2026-04-23 14:02 46.30523 5.67549 22142 ft 216 kts 289°
2026-04-23 14:02 46.31036 5.65494 22547 ft 216 kts 289°
2026-04-23 14:03 46.31549 5.63444 22900 ft 218 kts 289°
2026-04-23 14:03 46.32066 5.61368 23286 ft 219 kts 289°
2026-04-23 14:03 46.32584 5.59296 23632 ft 221 kts 289°
2026-04-23 14:03 46.33099 5.57228 23995 ft 221 kts 289°
2026-04-23 14:04 46.33630 5.55096 24300 ft 225 kts 289°
2026-04-23 14:04 46.34154 5.52983 24676 ft 223 kts 289°
2026-04-23 14:04 46.34684 5.50858 24962 ft 227 kts 289°
2026-04-23 14:04 46.35215 5.48717 25277 ft 228 kts 289°
2026-04-23 14:05 46.35754 5.46543 25558 ft 230 kts 289°
2026-04-23 14:05 46.36292 5.44374 25892 ft 229 kts 289°
2026-04-23 14:05 46.36832 5.42189 26141 ft 233 kts 289°
2026-04-23 14:05 46.37381 5.39968 26440 ft 233 kts 289°
2026-04-23 14:06 46.37928 5.37756 26721 ft 234 kts 289°
2026-04-23 14:06 46.38471 5.35547 26980 ft 235 kts 289°
2026-04-23 14:06 46.39029 5.33291 27260 ft 235 kts 288°
2026-04-23 14:06 46.39579 5.31049 27478 ft 238 kts 288°
2026-04-23 14:07 46.40129 5.28814 27703 ft 240 kts 288°
2026-04-23 14:07 46.41274 5.24155 27925 ft 253 kts 288°
2026-04-23 14:07 46.41872 5.21715 27923 ft 263 kts 288°
2026-04-23 14:08 46.42493 5.19177 27924 ft 270 kts 288°
2026-04-23 14:08 46.43122 5.16603 27922 ft 276 kts 288°
2026-04-23 14:08 46.43775 5.13933 27922 ft 281 kts 288°
2026-04-23 14:08 46.44426 5.11260 27922 ft 285 kts 288°
2026-04-23 14:09 46.44984 5.08486 27930 ft 286 kts 274°
2026-04-23 14:09 46.45449 5.05687 27914 ft 290 kts 297°
2026-04-23 14:09 46.46501 5.03167 27922 ft 291 kts 301°
2026-04-23 14:09 46.47518 5.00599 27922 ft 293 kts 298°
2026-04-23 14:10 46.48444 4.98001 27922 ft 294 kts 296°
2026-04-23 14:10 46.49348 4.95299 27926 ft 295 kts 295°
2026-04-23 14:10 46.50217 4.92612 27929 ft 296 kts 294°
2026-04-23 14:10 46.51088 4.89891 27925 ft 297 kts 294°
2026-04-23 14:11 46.51952 4.87171 27930 ft 297 kts 294°
2026-04-23 14:11 46.52820 4.84438 27931 ft 298 kts 294°
2026-04-23 14:11 46.53684 4.81703 27932 ft 298 kts 294°
2026-04-23 14:11 46.54552 4.78954 27929 ft 299 kts 294°
2026-04-23 14:12 46.55421 4.76199 27928 ft 299 kts 294°
2026-04-23 14:12 46.56285 4.73461 27925 ft 299 kts 295°
2026-04-23 14:12 46.57068 4.70976 27925 ft 298 kts 295°
2026-04-23 14:12 46.57927 4.68239 27924 ft 298 kts 295°
2026-04-23 14:13 46.58794 4.65486 27928 ft 298 kts 295°
2026-04-23 14:13 46.59663 4.62721 27921 ft 299 kts 295°
2026-04-23 14:13 46.60512 4.60009 27923 ft 298 kts 295°
2026-04-23 14:13 46.61377 4.57253 27922 ft 298 kts 295°
2026-04-23 14:14 46.62234 4.54512 27925 ft 298 kts 295°
2026-04-23 14:14 46.63098 4.51750 27924 ft 298 kts 295°
2026-04-23 14:14 46.63964 4.48982 27923 ft 298 kts 295°
2026-04-23 14:14 46.64817 4.46243 27925 ft 298 kts 295°
2026-04-23 14:15 46.65670 4.43510 27929 ft 298 kts 295°
2026-04-23 14:15 46.66524 4.40768 27925 ft 298 kts 295°
2026-04-23 14:15 46.67384 4.37999 27926 ft 298 kts 295°
2026-04-23 14:15 46.68239 4.35246 27924 ft 298 kts 295°
2026-04-23 14:16 46.69091 4.32497 27919 ft 298 kts 295°
2026-04-23 14:16 46.69942 4.29754 27921 ft 298 kts 294°
2026-04-23 14:16 46.70737 4.27179 27922 ft 297 kts 294°
2026-04-23 14:16 46.71592 4.24420 27922 ft 297 kts 294°
2026-04-23 14:17 46.72441 4.21676 27928 ft 297 kts 294°
2026-04-23 14:17 46.73293 4.18929 27929 ft 297 kts 294°
2026-04-23 14:17 46.74125 4.16212 27921 ft 297 kts 294°
2026-04-23 14:17 46.74974 4.13451 27927 ft 297 kts 294°
2026-04-23 14:18 46.75828 4.10677 27927 ft 297 kts 294°
2026-04-23 14:18 46.76625 4.08082 27922 ft 297 kts 294°
2026-04-23 14:18 46.77469 4.05328 27927 ft 296 kts 294°
2026-04-23 14:18 46.78310 4.02595 27928 ft 296 kts 294°
2026-04-23 14:19 46.79158 3.99830 27933 ft 296 kts 294°
2026-04-23 14:19 46.80000 3.97082 27930 ft 297 kts 294°
2026-04-23 14:19 46.80834 3.94344 27931 ft 297 kts 294°
2026-04-23 14:19 46.81669 3.91595 27929 ft 297 kts 294°
2026-04-23 14:20 46.82518 3.88819 27928 ft 297 kts 295°
2026-04-23 14:20 46.83349 3.86088 27926 ft 297 kts 295°
2026-04-23 14:20 46.84157 3.83430 27928 ft 296 kts 295°
2026-04-23 14:20 46.85004 3.80651 27929 ft 296 kts 295°
2026-04-23 14:21 46.85842 3.77896 27930 ft 297 kts 295°
2026-04-23 14:21 46.86667 3.75166 27923 ft 297 kts 295°
2026-04-23 14:21 46.87499 3.72413 27925 ft 296 kts 295°
2026-04-23 14:21 46.88335 3.69662 27929 ft 296 kts 295°
2026-04-23 14:22 46.89167 3.66906 27921 ft 296 kts 295°
2026-04-23 14:22 46.89996 3.64147 27922 ft 295 kts 296°
2026-04-23 14:22 46.90826 3.61404 27921 ft 294 kts 296°
2026-04-23 14:22 46.91642 3.58691 27923 ft 293 kts 296°
2026-04-23 14:23 46.92466 3.55960 27925 ft 292 kts 296°
2026-04-23 14:23 46.93285 3.53246 27925 ft 291 kts 296°
2026-04-23 14:23 46.94099 3.50523 27919 ft 291 kts 296°
2026-04-23 14:23 46.94908 3.47812 27916 ft 289 kts 297°
2026-04-23 14:24 46.95707 3.45158 27919 ft 288 kts 297°
2026-04-23 14:24 46.96520 3.42454 27925 ft 287 kts 296°
2026-04-23 14:24 46.97311 3.39805 27922 ft 286 kts 296°
2026-04-23 14:24 46.98106 3.37140 27918 ft 284 kts 296°
2026-04-23 14:25 46.98893 3.34501 27916 ft 283 kts 296°
2026-04-23 14:25 46.99681 3.31861 27916 ft 281 kts 295°
2026-04-23 14:25 47.00441 3.29309 27917 ft 280 kts 295°
2026-04-23 14:25 47.01212 3.26717 27923 ft 279 kts 296°
2026-04-23 14:26 47.02010 3.24106 28017 ft 273 kts 301°
2026-04-23 14:26 47.02999 3.21831 28203 ft 264 kts 307°
2026-04-23 14:26 47.04059 3.19643 28214 ft 265 kts 308°
2026-04-23 14:26 47.05133 3.17439 28216 ft 266 kts 308°
2026-04-23 14:27 47.06208 3.15226 28214 ft 267 kts 308°
2026-04-23 14:27 47.07290 3.12989 28214 ft 267 kts 308°
2026-04-23 14:27 47.08360 3.10770 28214 ft 268 kts 308°
2026-04-23 14:27 47.09445 3.08524 28210 ft 269 kts 308°
2026-04-23 14:28 47.10525 3.06286 28209 ft 269 kts 307°
2026-04-23 14:28 47.11603 3.04047 28199 ft 269 kts 307°
2026-04-23 14:28 47.12686 3.01796 28204 ft 269 kts 307°
2026-04-23 14:28 47.13721 2.99637 28205 ft 269 kts 308°
2026-04-23 14:29 47.14798 2.97396 28200 ft 269 kts 308°
2026-04-23 14:29 47.15884 2.95131 28196 ft 268 kts 308°
2026-04-23 14:29 47.16943 2.92921 28201 ft 268 kts 308°
2026-04-23 14:29 47.18017 2.90679 28203 ft 268 kts 308°
2026-04-23 14:30 47.19098 2.88424 28201 ft 267 kts 308°
2026-04-23 14:30 47.20171 2.86184 28208 ft 268 kts 308°
2026-04-23 14:30 47.21242 2.83940 28205 ft 268 kts 308°
2026-04-23 14:30 47.22308 2.81706 28206 ft 267 kts 308°
2026-04-23 14:31 47.23189 2.79322 27994 ft 272 kts 294°
2026-04-23 14:31 47.23780 2.76636 27566 ft 280 kts 289°
2026-04-23 14:31 47.24332 2.73874 27120 ft 284 kts 289°
2026-04-23 14:31 47.24894 2.71077 26667 ft 288 kts 289°
2026-04-23 14:32 47.25465 2.68262 26215 ft 289 kts 289°
2026-04-23 14:32 47.26046 2.65412 25759 ft 290 kts 289°
2026-04-23 14:32 47.26625 2.62566 25300 ft 292 kts 289°
2026-04-23 14:32 47.27204 2.59715 24835 ft 293 kts 289°
2026-04-23 14:33 47.27794 2.56813 24346 ft 294 kts 289°
2026-04-23 14:33 47.28373 2.53959 23825 ft 296 kts 289°
2026-04-23 14:33 47.28965 2.51056 23319 ft 297 kts 288°
2026-04-23 14:33 47.29561 2.48111 22792 ft 298 kts 288°
2026-04-23 14:34 47.30141 2.45199 22276 ft 298 kts 289°
2026-04-23 14:34 47.30720 2.42326 21771 ft 296 kts 289°
2026-04-23 14:34 47.31308 2.39428 21254 ft 295 kts 289°
2026-04-23 14:34 47.31889 2.36554 20745 ft 293 kts 289°
2026-04-23 14:35 47.32461 2.33708 20232 ft 291 kts 288°
2026-04-23 14:35 47.33036 2.30844 19710 ft 288 kts 288°
2026-04-23 14:35 47.33599 2.28035 19194 ft 286 kts 289°
2026-04-23 14:35 47.34156 2.25255 18681 ft 283 kts 288°
2026-04-23 14:36 47.34705 2.22504 18175 ft 281 kts 288°
2026-04-23 14:36 47.35262 2.19723 17648 ft 279 kts 288°
2026-04-23 14:36 47.35804 2.16999 17137 ft 277 kts 288°
2026-04-23 14:36 47.36346 2.14272 16625 ft 277 kts 287°
2026-04-23 14:37 47.36880 2.11583 16122 ft 276 kts 288°
2026-04-23 14:37 47.37420 2.08864 15607 ft 275 kts 288°
2026-04-23 14:37 47.37951 2.06180 15102 ft 275 kts 287°
2026-04-23 14:37 47.38486 2.03478 14597 ft 274 kts 287°
2026-04-23 14:38 47.39018 2.00784 14097 ft 274 kts 287°
2026-04-23 14:38 47.39542 1.98128 13597 ft 273 kts 287°
2026-04-23 14:38 47.40071 1.95436 13091 ft 273 kts 287°
2026-04-23 14:38 47.40600 1.92757 12589 ft 272 kts 287°
2026-04-23 14:39 47.41129 1.90066 12178 ft 268 kts 287°
2026-04-23 14:39 47.41644 1.87444 11805 ft 264 kts 287°
2026-04-23 14:39 47.42149 1.84871 11418 ft 262 kts 287°
2026-04-23 14:39 47.42650 1.82314 11026 ft 260 kts 287°
2026-04-23 14:40 47.43156 1.79723 10655 ft 259 kts 287°
2026-04-23 14:40 47.43645 1.77207 10293 ft 258 kts 287°
2026-04-23 14:40 47.44142 1.74658 9905 ft 257 kts 287°
2026-04-23 14:40 47.44597 1.72316 9556 ft 256 kts 287°
2026-04-23 14:41 47.45092 1.69774 9190 ft 256 kts 287°
2026-04-23 14:41 47.45578 1.67274 8839 ft 255 kts 287°
2026-04-23 14:41 47.46066 1.64755 8480 ft 255 kts 287°
2026-04-23 14:41 47.46555 1.62232 8109 ft 255 kts 286°
2026-04-23 14:42 47.47045 1.59701 7745 ft 255 kts 286°
2026-04-23 14:42 47.47531 1.57188 7384 ft 255 kts 286°
2026-04-23 14:42 47.48015 1.54678 7031 ft 254 kts 286°
2026-04-23 14:42 47.48496 1.52180 6667 ft 254 kts 286°
2026-04-23 14:43 47.48983 1.49646 6295 ft 254 kts 285°
2026-04-23 14:43 47.49459 1.47163 5935 ft 254 kts 286°
2026-04-23 14:43 47.49942 1.44644 5568 ft 254 kts 286°
2026-04-23 14:43 47.50421 1.42142 5204 ft 253 kts 287°
2026-04-23 14:44 47.50899 1.39650 4840 ft 252 kts 287°
2026-04-23 14:44 47.51522 1.37265 4460 ft 249 kts 309°
2026-04-23 14:44 47.52792 1.35559 4100 ft 243 kts 328°
2026-04-23 14:44 47.54115 1.34636 3995 ft 227 kts 346°
2026-04-23 14:45 47.55579 1.33959 3988 ft 213 kts 351°
2026-04-23 14:45 47.56985 1.33428 3991 ft 205 kts 352°
2026-04-23 14:45 47.58358 1.32932 3995 ft 201 kts 352°
2026-04-23 14:45 47.59717 1.32447 3993 ft 198 kts 352°
2026-04-23 14:46 47.61051 1.31967 3993 ft 196 kts 352°
2026-04-23 14:46 47.62376 1.31492 3991 ft 195 kts 352°
2026-04-23 14:46 47.63701 1.31015 3994 ft 194 kts 352°
2026-04-23 14:46 47.65027 1.30539 3997 ft 194 kts 352°
2026-04-23 14:47 47.66341 1.30065 3998 ft 194 kts 352°
2026-04-23 14:47 47.67651 1.29538 4000 ft 198 kts 341°
2026-04-23 14:47 47.68745 1.28263 4008 ft 202 kts 319°
2026-04-23 14:47 47.69665 1.26763 4005 ft 188 kts 315°
2026-04-23 14:48 47.70498 1.25348 4008 ft 181 kts 316°
2026-04-23 14:48 47.71328 1.23951 4007 ft 175 kts 316°
2026-04-23 14:48 47.72129 1.22609 4009 ft 173 kts 316°
2026-04-23 14:48 47.72936 1.21261 4012 ft 177 kts 317°
2026-04-23 14:49 47.73770 1.19870 4013 ft 180 kts 316°
2026-04-23 14:49 47.74614 1.18457 4012 ft 183 kts 316°
2026-04-23 14:49 47.75445 1.17022 3896 ft 185 kts 313°
2026-04-23 14:49 47.76223 1.15480 3772 ft 185 kts 310°
2026-04-23 14:50 47.76987 1.13925 3647 ft 185 kts 311°
2026-04-23 14:50 47.77742 1.12390 3522 ft 185 kts 311°
2026-04-23 14:50 47.78508 1.10839 3396 ft 184 kts 311°
2026-04-23 14:50 47.79274 1.09288 3271 ft 184 kts 311°
2026-04-23 14:51 47.80030 1.07757 3150 ft 184 kts 311°
2026-04-23 14:51 47.80790 1.06216 3025 ft 184 kts 311°
2026-04-23 14:51 47.81545 1.04683 2873 ft 183 kts 312°
2026-04-23 14:51 47.82281 1.03190 2525 ft 178 kts 312°
2026-04-23 14:52 47.82942 1.01640 2172 ft 178 kts 291°
2026-04-23 14:52 47.82884 0.99918 2116 ft 155 kts 243°
2026-04-23 14:52 47.82261 0.98723 2138 ft 145 kts 213°
2026-04-23 14:52 47.81460 0.97813 2141 ft 141 kts 207°
2026-04-23 14:53 47.80677 0.96985 2112 ft 137 kts 207°
2026-04-23 14:53 47.79851 0.96422 2113 ft 121 kts 174°
2026-04-23 14:53 47.79034 0.96422 2112 ft 113 kts 162°
2026-04-23 14:53 47.78353 0.96796 2117 ft 101 kts 136°
2026-04-23 14:54 47.77792 0.97441 2131 ft 104 kts 125°
2026-04-23 14:54 47.77285 0.98255 2132 ft 108 kts 120°
2026-04-23 14:54 47.76817 0.99151 2129 ft 109 kts 117°
2026-04-23 14:54 47.76391 1.00070 2124 ft 109 kts 115°
2026-04-23 14:55 47.75975 1.01026 2115 ft 109 kts 114°
2026-04-23 14:55 47.75574 1.01984 2116 ft 108 kts 114°
2026-04-23 14:55 47.75189 1.02918 2114 ft 104 kts 112°
2026-04-23 14:55 47.74824 1.03822 2117 ft 101 kts 112°
2026-04-23 14:56 47.74465 1.04716 2119 ft 99 kts 112°
2026-04-23 14:56 47.74159 1.05482 2120 ft 99 kts 112°
2026-04-23 14:56 47.73812 1.06355 2114 ft 98 kts 111°
2026-04-23 14:56 47.73463 1.07231 2116 ft 97 kts 112°
2026-04-23 14:57 47.73121 1.08091 2114 ft 94 kts 112°
2026-04-23 14:57 47.72812 1.08848 2097 ft 82 kts 110°
2026-04-23 14:57 47.72517 1.09604 2004 ft 85 kts 111°
2026-04-23 14:57 47.72205 1.10377 1902 ft 88 kts 111°
2026-04-23 14:58 47.71879 1.11166 1793 ft 90 kts 112°
2026-04-23 14:58 47.71550 1.11965 1681 ft 92 kts 112°
2026-04-23 14:58 47.71209 1.12789 1556 ft 94 kts 112°
2026-04-23 14:58 47.70861 1.13632 1428 ft 96 kts 112°
2026-04-23 14:59 47.70508 1.14483 1301 ft 98 kts 113°
2026-04-23 14:59 47.70149 1.15354 1168 ft 99 kts 113°
2026-04-23 14:59 47.69787 1.16229 1039 ft 100 kts 114°
2026-04-23 14:59 47.69423 1.17109 905 ft 101 kts 114°
2026-04-23 15:00 47.69051 1.18004 772 ft 101 kts 114°
2026-04-23 15:00 47.68681 1.18898 645 ft 101 kts 115°
2026-04-23 15:00 47.68331 1.19704 523 ft 78 kts 116°
2026-04-23 15:00 47.68089 1.20319 399 ft 60 kts 115°
2026-04-23 15:01 47.67932 1.20706 395 ft 32 kts 121°
2026-04-23 15:01 47.67838 1.20934 394 ft 21 kts 120°
2026-04-23 15:01 47.67813 1.21078 393 ft 12 kts 28°
2026-04-23 15:01 47.67901 1.21061 394 ft 14 kts 344°
2026-04-23 15:02 47.67987 1.21001 394 ft 16 kts 302°
2026-04-23 15:02 47.68044 1.20852 396 ft 12 kts 300°
2026-04-23 15:02 47.68096 1.20840 396 ft 9 kts 27°
2026-04-23 15:02 47.68148 1.20816 397 ft 7 kts 307°
2026-04-23 15:03 47.68163 1.20786 397 ft 5 kts 303°
2026-04-23 15:03 47.68169 1.20771 397 ft 0 kts 298°